LEMUR-2-ALEXANDER (43559 NORAD) Tracking and Keplerian Element Data

This shows tracking and keplerian element data for the satellite.

Feedback or suggestion? Click here.




ElementValue
Catalog43559
NameLEMUR-2-ALEXANDER
Epoch Orbit4749
Epoch Day144.53829795
Epoch Year2019
RAAN176.4644
Inclination51.6417
Eccentricity0.0007792
Argument of Perigee344.9492
Mean Anonmoly15.1256
Mean Motion15.29340964
Decay Rate6.94E-06
L11 43559U 18046F 19144.53829795 .00000694 00000-0 36517-4 0 9997
L22 43559 51.6417 176.4644 0007792 344.9492 15.1256 15.29340964 47491

Live tracking and technical data element details for LEMUR-2-ALEXANDER (NORAD 43559). LEMUR-2-ALEXANDER can be tracked NOW for your location showing map with azimuth and elevation plus other details from your city location.

Track the satellite on the map from your city or location and see movement details for azimuth, elevation, latitude, longitude, range, height, and movement on the map or in text.







IsCatalogInMostPopularTable: catalog: 43559, numindb: 145
Update: records affected: 1



GetName: 43559 LEMUR-2-ALEXANDER

Hit Count: updated at: Fri, 24 May 2019 21:02:29 GMT